[[{"header":{"parameterUnit":"m.s-1","parameterCategory":2,"la1":30.2991,"la2":30.254,"lo1":-89.0895,"lo2":-89.0444,"dy":0.0017,"dx":0.0017,"nx":28,"ny":28,"refTime":"2024-03-05T03:00:00:Z","depth":"0","parameterNumber":2,"parameterNumberName":"U-component_of_CURRENTS"},"data":[0,0,0,0,0,0,0,0,0,0,0,0,0,0,0,0,0,0,0,0,0,0,0,0,0,0,0,0,0,0,0,0,0,0,0,0,0,0,0,0,0,0,0,0,0,0,0,0,0,0,0,0,0,0,0,0,0,0,0.2035,0.2035,0,0.2047,0.2047,0.2047,0.2037,0.2037,0.2036,0.2036,0.2019,0.2018,0.2018,0,0,0,0,0,0,0,0,0,0,0,0,0,0.1998,0.1999,0.2035,0.2035,0.2036,0.2047,0.2047,0.2047,0.2037,0.2037,0.2036,0.2036,0.2019,0.2018,0.2018,0,0,0,0,0,0,0,0,0,0,0,0,0,0.201,0.1999,0.2035,0.2034,0.2034,0.2047,0.2047,0.2047,0.2037,0.2037,0.2036,0.2036,0.2019,0.2018,0.2018,0.2021,0,0,0.2017,0.2017,0,0,0,0,0,0,0,0,0.201,0.2011,0.2034,0.2034,0.2034,0.2042,0.2028,0.2038,0.2037,0.2033,0.2036,0.2036,0.2026,0.2025,0.2024,0.202,0.202,0.2017,0.2016,0.2016,0.2016,0,0,0,0,0,0,0,0.2009,0.2011,0.2037,0.2034,0.2035,0.2032,0.2033,0.203,0.2028,0.2033,0.2033,0.2039,0.2025,0.2025,0.2024,0.2019,0.2017,0.2016,0.2016,0.2016,0.2053,0.2054,0,0,0,0,0,0,0.2013,0.201,0.2037,0.2038,0.2024,0.2033,0.2034,0.2038,0.2029,0.2028,0.2039,0.2038,0.2026,0.2024,0.2023,0.2051,0.2016,0.2016,0.2016,0.2052,0.2054,0.2055,0,0,0,0,0,0,0.2012,0.2015,0.2036,0.2026,0.2029,0.2034,0.2039,0.2039,0.2041,0.2034,0.2032,0.2043,0.2026,0.2024,0.2032,0.2049,0.2016,0.2015,0.2051,0.2053,0.2054,0.209,0,0,0,0,0,0,0.2011,0.2015,0.2019,0.2027,0.203,0.205,0.2039,0.2039,0.2046,0.2045,0.2037,0.2035,0.2025,0.2033,0.2032,0.2048,0.2015,0.2049,0.2051,0.2054,0.2087,0.2093,0.2098,0,0,0,0,0,0.201,0.2016,0.2019,0.2022,0.2035,0.2051,0.2052,0.2053,0.2047,0.2053,0.2051,0.2035,0.2047,0.2034,0.2032,0.2048,0.2048,0.2051,0.2053,0.2085,0.2092,0.2098,0,0,0,0,0,0,0.1997,0.2016,0.2019,0.2029,0.2043,0.205,0.2057,0.2057,0.206,0.2058,0.2046,0.2045,0.206,0.2052,0.2037,0.2068,0.2047,0.2049,0.2071,0.2078,0.2083,0.2091,0.2015,0,0,0,0,0,0.1999,0.2009,0.2026,0.2034,0.2044,0.2051,0.2057,0.206,0.2065,0.2066,0.2061,0.2062,0.2071,0.2072,0.2075,0.2087,0.2103,0.21,0.2105,0.2109,0.2117,0.2155,0.2165,0.2064,0.2064,0.2064,0,0,0.1994,0.2007,0.2011,0.2033,0.2042,0.2061,0.2053,0.2068,0.2082,0.2064,0.2077,0.2078,0.2079,0.2097,0.2103,0.2091,0.215,0.2113,0.2116,0.2122,0.2159,0.2169,0.2178,0.2066,0.2066,0.2065,0,0,0.1995,0.2006,0.2018,0.2035,0.2059,0.2068,0.2075,0.2089,0.2094,0.211,0.2106,0.2121,0.2123,0.2134,0.2139,0.2176,0.2177,0.2175,0.2206,0.2243,0.2252,0.226,0.2307,0.2318,0.2177,0.2177,0.2177,0,0.1989,0.2007,0.2023,0.2045,0.2058,0.2073,0.209,0.2105,0.2119,0.2131,0.212,0.2148,0.2145,0.2178,0.2193,0.2188,0.2212,0.2179,0.225,0.2258,0.2265,0.2311,0.2324,0.2179,0.2179,0.2179,0.2179,0,0.2004,0.2021,0.2031,0.2064,0.2081,0.2098,0.2126,0.2144,0.2152,0.2166,0.2197,0.22,0.2219,0.2222,0.2217,0.2269,0.2272,0.2252,0.2232,0.2277,0.2324,0.2336,0.2182,0.2181,0.2181,0.218,0,0,0.1976,0.203,0.2032,0.2052,0.2091,0.2107,0.2142,0.2177,0.2206,0.2221,0.2258,0.2275,0.2282,0.2289,0.2287,0.2317,0.2392,0.2309,0.231,0.2353,0.249,0.2515,0.253,0.2384,0.2386,0.2387,0.2507,0,0.1978,0.2018,0.2043,0.2078,0.21,0.2132,0.2165,0.2203,0.2231,0.2274,0.2294,0.2326,0.2306,0.2321,0.2351,0.2383,0.2423,0.2362,0.2442,0.2445,0.2459,0.2545,0.2469,0.2571,0.2518,0.252,0.2522,0,0.1976,0.2007,0.2039,0.2093,0.2105,0.2129,0.2186,0.2222,0.2291,0.2314,0.2355,0.2375,0.2432,0.2401,0.2488,0.2451,0.2479,0.2498,0.2502,0.2521,0.2492,0.2515,0.2595,0.2558,0.254,0.2539,0.2537,0,0.1942,0.1998,0.2021,0.2039,0.2106,0.2127,0.2166,0.2232,0.2266,0.2349,0.2385,0.2445,0.2487,0.2528,0.2579,0.2539,0.2679,0.2625,0.2676,0.2678,0.2628,0.2622,0.2677,0.2692,0.2691,0.2691,0.2691,0,0.1926,0.1943,0.201,0.2023,0.2055,0.2116,0.2156,0.2207,0.2287,0.2336,0.2406,0.2464,0.2521,0.2602,0.2625,0.2714,0.2722,0.2712,0.2721,0.264,0.2635,0.261,0.2584,0.2696,0.2695,0.2694,0.2693,0,0.1872,0.1917,0.1945,0.2016,0.2035,0.2059,0.2133,0.2173,0.2263,0.2334,0.2364,0.2499,0.2622,0.2688,0.2782,0.2785,0.2794,0.2874,0.2789,0.2786,0.2772,0.2752,0.2721,0.2621,0.2946,0.2947,0.2948,0,0.1842,0.1856,0.1918,0.1934,0.196,0.2008,0.204,0.2135,0.2185,0.2351,0.2389,0.255,0.2646,0.2831,0.2891,0.2974,0.2866,0.2935,0.2838,0.2798,0.278,0.265,0.2556,0.279,0.279,0.279,0.279,0,0.1785,0.1808,0.1834,0.1871,0.1901,0.1931,0.1996,0.2027,0.2153,0.224,0.2382,0.2484,0.2703,0.2794,0.2937,0.2961,0.2814,0.2936,0.2906,0.2693,0.2541,0.2439,0.2694,0.2789,0.2789,0.2789,0.2789,0.2789,0.1731,0.1733,0.1774,0.1798,0.1829,0.1851,0.1852,0.1942,0.2017,0.2133,0.2298,0.2438,0.2653,0.2863,0.288,0.2911,0.2835,0.2831,0.2822,0.2703,0.2565,0.2839,0.2931,0.2932,0.2932,0.2933,0.2934,0,0.1659,0.1679,0.1703,0.1722,0.1719,0.1768,0.1814,0.1812,0.1868,0.2048,0.2164,0.2417,0.2563,0.2723,0.2883,0.2816,0.2629,0.2743,0.2527,0.2444,0.2718,0.2669,0.2692,0.2692,0.2692,0.2692,0.2693,0.2693,0.1624,0.1618,0.1633,0.1604,0.1618,0.1581,0.1585,0.1611,0.1717,0.1879,0.2049,0.2214,0.2567,0.285,0.2879,0.2787,0.2536,0.2453,0.2403,0.261,0.2615,0.262,0.2568,0.257,0.257,0.2,0.1996,0.1994]},{"header":{"parameterUnit":"m.s-1","parameterCategory":2,"la1":30.2991,"la2":30.254,"lo1":-89.0895,"lo2":-89.0444,"dy":0.0017,"dx":0.0017,"nx":28,"ny":28,"refTime":"2024-03-05T03:00:00:Z","depth":"0","parameterNumber":3,"parameterNumberName":"V-component_of_CURRENTS"},"data":[0,0,0,0,0,0,0,0,0,0,0,0,0,0,0,0,0,0,0,0,0,0,0,0,0,0,0,0,0,0,0,0,0,0,0,0,0,0,0,0,0,0,0,0,0,0,0,0,0,0,0,0,0,0,0,0,0,0,-0.0311,-0.0312,0,-0.0381,-0.0382,-0.0383,-0.0423,-0.0423,-0.0423,-0.0423,-0.0504,-0.0506,-0.0509,0,0,0,0,0,0,0,0,0,0,0,0,0,-0.0246,-0.0246,-0.0311,-0.0312,-0.0313,-0.0381,-0.0382,-0.0383,-0.0423,-0.0423,-0.0423,-0.0423,-0.0504,-0.0506,-0.0509,0,0,0,0,0,0,0,0,0,0,0,0,0,-0.0291,-0.0247,-0.0311,-0.0341,-0.0344,-0.0381,-0.0382,-0.0383,-0.0423,-0.0423,-0.0423,-0.0423,-0.0503,-0.0506,-0.0509,-0.0525,0,0,-0.0518,-0.052,0,0,0,0,0,0,0,0,-0.0288,-0.0293,-0.0335,-0.0339,-0.0342,-0.0393,-0.0388,-0.0431,-0.0423,-0.0393,-0.0423,-0.0423,-0.0468,-0.0474,-0.0487,-0.0529,-0.0532,-0.0519,-0.0521,-0.0522,-0.0523,0,0,0,0,0,0,0,-0.0285,-0.0291,-0.0339,-0.0336,-0.0341,-0.0362,-0.0368,-0.0397,-0.0429,-0.0396,-0.0399,-0.0406,-0.047,-0.0484,-0.0489,-0.0533,-0.0519,-0.0521,-0.0523,-0.0525,-0.0591,-0.0591,0,0,0,0,0,0,-0.0274,-0.0288,-0.0337,-0.0341,-0.0315,-0.0362,-0.037,-0.0377,-0.0429,-0.0437,-0.0406,-0.0407,-0.0479,-0.0486,-0.0492,-0.0507,-0.0522,-0.0525,-0.0527,-0.0591,-0.0591,-0.0591,0,0,0,0,0,0,-0.0272,-0.0277,-0.0334,-0.0316,-0.0324,-0.0363,-0.0371,-0.0378,-0.0391,-0.0436,-0.0444,-0.0411,-0.0479,-0.0488,-0.0516,-0.0511,-0.0526,-0.0529,-0.0591,-0.0591,-0.0591,-0.0541,0,0,0,0,0,0,-0.027,-0.0276,-0.0277,-0.0315,-0.0325,-0.035,-0.0371,-0.0379,-0.0395,-0.0398,-0.0444,-0.0451,-0.048,-0.0511,-0.0519,-0.0515,-0.0531,-0.0592,-0.0591,-0.0591,-0.0542,-0.0539,-0.0536,0,0,0,0,0,-0.0267,-0.0266,-0.0276,-0.0282,-0.0325,-0.0349,-0.0356,-0.0385,-0.0395,-0.0398,-0.043,-0.045,-0.0515,-0.0513,-0.0523,-0.052,-0.0592,-0.0591,-0.0591,-0.0544,-0.0539,-0.0536,0,0,0,0,0,0,-0.0236,-0.0271,-0.0283,-0.0292,-0.0316,-0.0356,-0.0362,-0.0381,-0.0408,-0.041,-0.0452,-0.0462,-0.0484,-0.0509,-0.0506,-0.0539,-0.0556,-0.0557,-0.0517,-0.0513,-0.051,-0.0496,-0.0534,0,0,0,0,0,-0.0229,-0.0237,-0.0272,-0.0278,-0.0288,-0.0323,-0.0337,-0.0355,-0.0385,-0.0397,-0.0429,-0.0462,-0.0491,-0.0507,-0.0536,-0.0555,-0.058,-0.0559,-0.0555,-0.0552,-0.0547,-0.0586,-0.0585,-0.0591,-0.0591,-0.0591,0,0,-0.0218,-0.0237,-0.0243,-0.0272,-0.0293,-0.0302,-0.0332,-0.0347,-0.0354,-0.0402,-0.0419,-0.0452,-0.0494,-0.0515,-0.0526,-0.0535,-0.0563,-0.0552,-0.0549,-0.0546,-0.0585,-0.0585,-0.0585,-0.059,-0.059,-0.059,0,0,-0.0198,-0.0217,-0.0217,-0.0234,-0.0261,-0.0283,-0.0284,-0.0321,-0.0335,-0.0358,-0.0392,-0.0422,-0.0465,-0.0494,-0.0515,-0.0511,-0.0544,-0.0518,-0.0491,-0.0528,-0.0527,-0.0527,-0.0551,-0.0553,-0.0516,-0.0516,-0.0516,0,-0.0181,-0.0188,-0.022,-0.0223,-0.0231,-0.027,-0.0268,-0.029,-0.033,-0.0339,-0.0355,-0.042,-0.0456,-0.0483,-0.0483,-0.0503,-0.0524,-0.0501,-0.0523,-0.0523,-0.0524,-0.0548,-0.0552,-0.0514,-0.0514,-0.0514,-0.0514,0,-0.0164,-0.0167,-0.0167,-0.0185,-0.0197,-0.0201,-0.0233,-0.0245,-0.0268,-0.0294,-0.0324,-0.0376,-0.0413,-0.043,-0.0457,-0.0479,-0.0491,-0.0513,-0.053,-0.0521,-0.0547,-0.0551,-0.051,-0.0511,-0.0512,-0.0512,0,0,-0.0126,-0.015,-0.0148,-0.0146,-0.0175,-0.0181,-0.0189,-0.0209,-0.0209,-0.0255,-0.0261,-0.0321,-0.0351,-0.0376,-0.0416,-0.0449,-0.0476,-0.0478,-0.0481,-0.0495,-0.0547,-0.0527,-0.0531,-0.0501,-0.0502,-0.0503,-0.0559,0,-0.0099,-0.0091,-0.0113,-0.0101,-0.0098,-0.013,-0.0129,-0.0152,-0.018,-0.0197,-0.0255,-0.0279,-0.033,-0.0343,-0.0387,-0.0452,-0.0487,-0.0458,-0.0559,-0.0562,-0.0541,-0.0535,-0.0514,-0.056,-0.0564,-0.0564,-0.0565,0,-0.0072,-0.007,-0.0052,-0.0052,-0.0052,-0.0049,-0.0052,-0.0063,-0.01,-0.0119,-0.0163,-0.0208,-0.0264,-0.0306,-0.0418,-0.0396,-0.0465,-0.0519,-0.0523,-0.0525,-0.0551,-0.0573,-0.0569,-0.073,-0.0573,-0.0572,-0.0571,0,-0.0025,-0.0025,-0.0005,-0.0007,-0.0015,-0.0005,-0.0011,-0.0036,-0.0028,-0.0072,-0.0069,-0.0153,-0.0177,-0.0286,-0.0394,-0.041,-0.0509,-0.0548,-0.0597,-0.0596,-0.0608,-0.0607,-0.0767,-0.0627,-0.0627,-0.0627,-0.0626,0,0.0012,0.0029,0.0021,0.0033,0.0067,0.0041,0.0069,0.0052,0.0044,0.0068,-0.0026,-0.0017,-0.0172,-0.0245,-0.0368,-0.0483,-0.0493,-0.0587,-0.061,-0.0589,-0.0585,-0.075,-0.0847,-0.0629,-0.0628,-0.0628,-0.0627,0,0.006,0.0052,0.0077,0.0082,0.009,0.0111,0.013,0.0151,0.0131,0.0161,0.0158,0.0089,0.0001,-0.015,-0.0308,-0.0426,-0.0645,-0.0592,-0.0545,-0.0561,-0.0762,-0.0855,-0.1047,-0.1124,-0.0667,-0.0666,-0.0666,0,0.0085,0.0102,0.0122,0.0146,0.0152,0.0178,0.0208,0.0199,0.0226,0.0238,0.0266,0.0203,0.0185,-0.0043,-0.0259,-0.0462,-0.0629,-0.0587,-0.062,-0.0765,-0.0888,-0.0973,-0.1029,-0.062,-0.062,-0.0619,-0.0619,0,0.0135,0.0141,0.0162,0.0212,0.0248,0.0286,0.0323,0.0365,0.0374,0.0413,0.0463,0.0458,0.0263,0.0079,-0.0198,-0.0356,-0.0709,-0.0584,-0.0761,-0.0881,-0.0961,-0.1045,-0.0586,-0.0615,-0.0616,-0.0616,-0.0616,-0.0616,0.0178,0.0203,0.0234,0.0282,0.0327,0.0392,0.0434,0.0492,0.0565,0.0639,0.0626,0.0653,0.0366,-0.0003,-0.0235,-0.066,-0.0689,-0.0796,-0.0901,-0.0976,-0.1044,-0.0561,-0.0597,-0.0597,-0.0597,-0.0598,-0.0598,0,0.0229,0.0254,0.0302,0.0357,0.0416,0.0428,0.0514,0.0566,0.0672,0.0763,0.0818,0.0719,0.0351,-0.004,-0.0597,-0.0916,-0.1065,-0.1108,-0.1247,-0.1293,-0.0883,-0.0874,-0.0939,-0.0939,-0.0939,-0.0939,-0.0939,-0.0938,0.0258,0.0308,0.0326,0.0423,0.0467,0.0547,0.06,0.0694,0.0773,0.0893,0.094,0.0949,0.0676,-0.0369,-0.1107,-0.1285,-0.1552,-0.1593,-0.1738,-0.1479,-0.1459,-0.144,-0.1455,-0.1641,-0.1642,-0.2101,-0.2106,-0.2109]}],[{"header":{"parameterUnit":"m.s-1","parameterCategory":2,"la1":30.2991,"la2":30.254,"lo1":-89.0895,"lo2":-89.0444,"dy":0.0017,"dx":0.0017,"nx":28,"ny":28,"refTime":"2024-03-05T03:00:00:Z","depth":"2","parameterNumber":2,"parameterNumberName":"U-component_of_CURRENTS"},"data":[0,0,0,0,0,0,0,0,0,0,0,0,0,0,0,0,0,0,0,0,0,0,0,0,0,0,0,0,0,0,0,0,0,0,0,0,0,0,0,0,0,0,0,0,0,0,0,0,0,0,0,0,0,0,0,0,0,0,0.2063,0.2064,0,0.2078,0.2078,0.2078,0.2073,0.2073,0.2073,0.2073,0.2067,0.2067,0.2067,0,0,0,0,0,0,0,0,0,0,0,0,0,0.2027,0.2027,0.2063,0.2064,0.2064,0.2078,0.2078,0.2078,0.2073,0.2073,0.2073,0.2073,0.2067,0.2067,0.2067,0,0,0,0,0,0,0,0,0,0,0,0,0,0.204,0.2027,0.2063,0.2065,0.2065,0.2078,0.2078,0.2078,0.2074,0.2073,0.2073,0.2073,0.2067,0.2067,0.2067,0.2071,0,0,0.2067,0.2067,0,0,0,0,0,0,0,0,0.2039,0.2041,0.2064,0.2065,0.2065,0.2076,0.2063,0.2075,0.2074,0.2068,0.2073,0.2073,0.207,0.207,0.207,0.207,0.207,0.2067,0.2067,0.2067,0.2067,0,0,0,0,0,0,0,0.2038,0.2041,0.2067,0.2065,0.2065,0.2064,0.2065,0.2065,0.2068,0.2069,0.2069,0.2074,0.207,0.207,0.207,0.207,0.2067,0.2067,0.2067,0.2067,0.2115,0.2116,0,0,0,0,0,0,0.2041,0.204,0.2067,0.2068,0.2054,0.2065,0.2066,0.2071,0.2068,0.2068,0.2074,0.2074,0.207,0.207,0.207,0.2105,0.2067,0.2067,0.2067,0.2113,0.2115,0.2116,0,0,0,0,0,0,0.2041,0.2044,0.2066,0.2056,0.2059,0.2066,0.2071,0.2071,0.2078,0.2073,0.2072,0.2081,0.207,0.207,0.2083,0.2103,0.2067,0.2067,0.2112,0.2114,0.2116,0.2155,0,0,0,0,0,0,0.2039,0.2043,0.2049,0.2056,0.2059,0.2081,0.2071,0.2072,0.2082,0.2082,0.2079,0.2078,0.207,0.2084,0.2083,0.2103,0.2067,0.211,0.2113,0.2115,0.2152,0.2158,0.2163,0,0,0,0,0,0.2038,0.2046,0.205,0.2053,0.2067,0.2082,0.2083,0.2086,0.2082,0.209,0.2092,0.2078,0.2099,0.2084,0.2084,0.2104,0.2109,0.2112,0.2115,0.215,0.2157,0.2163,0,0,0,0,0,0,0.203,0.2047,0.2051,0.2063,0.2076,0.2082,0.2091,0.2092,0.2099,0.21,0.209,0.209,0.2111,0.2104,0.2089,0.2127,0.2103,0.2106,0.213,0.2137,0.2142,0.215,0.2067,0,0,0,0,0,0.2033,0.2045,0.206,0.207,0.2079,0.2086,0.2093,0.2097,0.2104,0.2107,0.2106,0.2111,0.2122,0.2127,0.2132,0.2149,0.2164,0.2164,0.217,0.2174,0.2182,0.2222,0.2232,0.2126,0.2126,0.2126,0,0,0.2032,0.2045,0.205,0.207,0.208,0.2098,0.209,0.2106,0.2121,0.2105,0.2125,0.2128,0.2132,0.2154,0.2163,0.2151,0.2216,0.2178,0.2182,0.2187,0.2226,0.2236,0.2246,0.2128,0.2128,0.2127,0,0,0.2038,0.205,0.2063,0.2079,0.2101,0.2109,0.2117,0.213,0.2138,0.2158,0.2156,0.2175,0.2182,0.2196,0.2202,0.2243,0.2243,0.2244,0.2277,0.2316,0.2325,0.2333,0.2377,0.2389,0.2246,0.2247,0.2247,0,0.2036,0.2055,0.2069,0.209,0.2103,0.2117,0.2134,0.215,0.2166,0.2181,0.2171,0.2205,0.2206,0.2243,0.226,0.2255,0.2279,0.2248,0.2323,0.2331,0.2339,0.2382,0.2395,0.2249,0.2248,0.2248,0.2248,0,0.2053,0.2071,0.2082,0.2114,0.2132,0.2149,0.2174,0.2195,0.2206,0.2221,0.2258,0.2263,0.2286,0.2291,0.2287,0.2343,0.2344,0.2325,0.2304,0.2352,0.2395,0.2407,0.2252,0.2251,0.225,0.225,0,0,0.2032,0.2083,0.2086,0.2106,0.2144,0.2159,0.2198,0.2234,0.2265,0.2284,0.2324,0.2346,0.2353,0.2362,0.2363,0.2394,0.247,0.2386,0.2387,0.2427,0.2569,0.254,0.2551,0.2464,0.2466,0.2468,0.2582,0,0.2037,0.2077,0.2101,0.2137,0.2159,0.219,0.2226,0.2265,0.2296,0.2341,0.2364,0.2398,0.238,0.2396,0.2428,0.2461,0.2502,0.2442,0.2519,0.2521,0.2488,0.2563,0.2362,0.2444,0.2593,0.2595,0.2597,0,0.2036,0.2068,0.21,0.2155,0.2168,0.2192,0.2252,0.229,0.2361,0.2385,0.2429,0.245,0.251,0.2479,0.2568,0.2532,0.2559,0.2578,0.2582,0.2549,0.2515,0.2419,0.246,0.2617,0.2615,0.2614,0.2613,0,0.2006,0.2062,0.2087,0.2104,0.217,0.2193,0.2233,0.2301,0.2337,0.2422,0.246,0.2522,0.2566,0.2607,0.2658,0.262,0.2758,0.2706,0.2708,0.2706,0.2547,0.2528,0.2773,0.2773,0.2773,0.2772,0.2772,0,0.1992,0.201,0.2076,0.2089,0.2123,0.2183,0.2226,0.2278,0.2359,0.2409,0.2482,0.254,0.26,0.2681,0.2703,0.2763,0.2801,0.2738,0.2741,0.2556,0.2538,0.2686,0.2675,0.2777,0.2776,0.2775,0.2774,0,0.194,0.1985,0.2014,0.2085,0.2104,0.2129,0.2204,0.2245,0.2336,0.2408,0.2439,0.2575,0.2678,0.2743,0.2834,0.2825,0.2878,0.2887,0.2676,0.2651,0.2785,0.2775,0.289,0.289,0.2891,0.2891,0.2891,0,0.1912,0.1926,0.1988,0.2004,0.203,0.2078,0.2111,0.2208,0.2257,0.2423,0.2461,0.2603,0.2671,0.2824,0.2856,0.2908,0.2919,0.2737,0.2616,0.281,0.2801,0.279,0.278,0.2426,0.2423,0.242,0.2417,0,0.1857,0.1879,0.1905,0.1942,0.1971,0.2003,0.2068,0.2098,0.2224,0.2301,0.2426,0.2502,0.2666,0.265,0.2744,0.2738,0.2707,0.2676,0.2951,0.2427,0.2382,0.237,0.2373,0.239,0.2393,0.2395,0.2396,0.2397,0.1804,0.1806,0.1846,0.1869,0.19,0.1922,0.1923,0.2004,0.2068,0.2158,0.2306,0.2359,0.2444,0.2484,0.246,0.2456,0.2619,0.2485,0.249,0.25,0.2426,0.2382,0.2378,0.238,0.2382,0.2384,0.2386,0,0.1732,0.1752,0.1775,0.1795,0.179,0.184,0.1884,0.1874,0.1908,0.2022,0.2096,0.2008,0.2034,0.211,0.2079,0.2122,0.2061,0.2017,0.1904,0.1936,0.1963,0.1855,0.1659,0.1656,0.1654,0.1651,0,0,0.1697,0.1689,0.1704,0.1674,0.1689,0.1656,0.1659,0.1668,0.1725,0.1737,0.1759,0.192,0.2048,0.1807,0.1819,0.1724,0.1799,0.1662,0.2256,0.2154,0.2177,0.2261,0.2137,0,0,0,0,0]},{"header":{"parameterUnit":"m.s-1","parameterCategory":2,"la1":30.2991,"la2":30.254,"lo1":-89.0895,"lo2":-89.0444,"dy":0.0017,"dx":0.0017,"nx":28,"ny":28,"refTime":"2024-03-05T03:00:00:Z","depth":"2","parameterNumber":3,"parameterNumberName":"V-component_of_CURRENTS"},"data":[0,0,0,0,0,0,0,0,0,0,0,0,0,0,0,0,0,0,0,0,0,0,0,0,0,0,0,0,0,0,0,0,0,0,0,0,0,0,0,0,0,0,0,0,0,0,0,0,0,0,0,0,0,0,0,0,0,0,-0.0261,-0.0262,0,-0.0329,-0.033,-0.033,-0.0374,-0.0374,-0.0374,-0.0375,-0.0457,-0.0459,-0.0461,0,0,0,0,0,0,0,0,0,0,0,0,0,-0.0199,-0.02,-0.0261,-0.0262,-0.0263,-0.0329,-0.033,-0.0331,-0.0374,-0.0374,-0.0375,-0.0375,-0.0457,-0.0459,-0.0462,0,0,0,0,0,0,0,0,0,0,0,0,0,-0.0243,-0.02,-0.0261,-0.0292,-0.0295,-0.0328,-0.033,-0.0331,-0.0374,-0.0374,-0.0375,-0.0375,-0.0456,-0.0459,-0.0462,-0.0473,0,0,-0.0471,-0.0472,0,0,0,0,0,0,0,0,-0.024,-0.0245,-0.0286,-0.029,-0.0294,-0.0343,-0.0338,-0.0379,-0.0374,-0.0344,-0.0375,-0.0375,-0.042,-0.0426,-0.0438,-0.0477,-0.0481,-0.0471,-0.0473,-0.0474,-0.0475,0,0,0,0,0,0,0,-0.0237,-0.0243,-0.0288,-0.0287,-0.0292,-0.0313,-0.0319,-0.0346,-0.038,-0.0347,-0.035,-0.0357,-0.0422,-0.0435,-0.0441,-0.0482,-0.0471,-0.0474,-0.0476,-0.0477,-0.054,-0.054,0,0,0,0,0,0,-0.0226,-0.024,-0.0286,-0.029,-0.0267,-0.0314,-0.0321,-0.0327,-0.038,-0.0388,-0.0357,-0.0359,-0.043,-0.0437,-0.0444,-0.046,-0.0474,-0.0477,-0.0479,-0.054,-0.054,-0.054,0,0,0,0,0,0,-0.0225,-0.023,-0.0283,-0.0266,-0.0274,-0.0314,-0.0321,-0.0328,-0.0344,-0.0387,-0.0395,-0.0365,-0.0431,-0.0439,-0.0467,-0.0464,-0.0478,-0.0481,-0.054,-0.054,-0.054,-0.0494,0,0,0,0,0,0,-0.0222,-0.0229,-0.023,-0.0265,-0.0275,-0.0299,-0.0321,-0.0329,-0.0347,-0.035,-0.0396,-0.0404,-0.0432,-0.0463,-0.047,-0.0468,-0.0483,-0.0541,-0.054,-0.054,-0.0496,-0.0492,-0.0489,0,0,0,0,0,-0.022,-0.0219,-0.023,-0.0236,-0.0276,-0.0298,-0.0305,-0.0335,-0.0347,-0.035,-0.0382,-0.0403,-0.0467,-0.0465,-0.0474,-0.0473,-0.0541,-0.054,-0.054,-0.0497,-0.0493,-0.0489,0,0,0,0,0,0,-0.0192,-0.0224,-0.0237,-0.0245,-0.0268,-0.0305,-0.0312,-0.0332,-0.036,-0.0364,-0.0404,-0.0414,-0.0437,-0.0461,-0.0458,-0.049,-0.0506,-0.0508,-0.047,-0.0467,-0.0464,-0.0451,-0.0486,0,0,0,0,0,-0.0186,-0.0194,-0.0226,-0.0232,-0.0242,-0.0276,-0.029,-0.0308,-0.0338,-0.0351,-0.0382,-0.0415,-0.0443,-0.0459,-0.0487,-0.0505,-0.0529,-0.051,-0.0507,-0.0504,-0.0499,-0.0536,-0.0535,-0.0539,-0.0539,-0.0539,0,0,-0.0177,-0.0195,-0.02,-0.0227,-0.0248,-0.0255,-0.0285,-0.0301,-0.0307,-0.0355,-0.0373,-0.0407,-0.0446,-0.0466,-0.0479,-0.0486,-0.0514,-0.0504,-0.0501,-0.0498,-0.0535,-0.0535,-0.0535,-0.0539,-0.0539,-0.0539,0,0,-0.0159,-0.0178,-0.0178,-0.0193,-0.0219,-0.024,-0.0241,-0.0276,-0.0292,-0.0314,-0.0349,-0.0379,-0.0421,-0.0448,-0.0467,-0.0464,-0.0496,-0.0472,-0.0446,-0.0481,-0.0481,-0.0481,-0.0503,-0.0505,-0.047,-0.047,-0.047,0,-0.0145,-0.0151,-0.018,-0.0182,-0.019,-0.0228,-0.0225,-0.0246,-0.0285,-0.0295,-0.0313,-0.0377,-0.0412,-0.0437,-0.0438,-0.0457,-0.0478,-0.0456,-0.0477,-0.0478,-0.0479,-0.0501,-0.0504,-0.0468,-0.0468,-0.0468,-0.0468,0,-0.0127,-0.0131,-0.0131,-0.0145,-0.0157,-0.0161,-0.019,-0.0203,-0.0227,-0.0253,-0.0284,-0.0334,-0.0371,-0.0387,-0.0414,-0.0436,-0.0448,-0.0468,-0.0484,-0.0475,-0.0499,-0.0503,-0.0464,-0.0465,-0.0466,-0.0467,0,0,-0.0095,-0.0114,-0.0113,-0.011,-0.0136,-0.0141,-0.0149,-0.0168,-0.0168,-0.0215,-0.0221,-0.028,-0.0312,-0.0335,-0.0374,-0.0406,-0.0433,-0.0436,-0.0439,-0.0452,-0.0501,-0.0474,-0.0477,-0.0459,-0.0459,-0.046,-0.0512,0,-0.007,-0.006,-0.0079,-0.0066,-0.0062,-0.0092,-0.009,-0.0112,-0.0141,-0.0157,-0.0214,-0.0239,-0.029,-0.0305,-0.0348,-0.0411,-0.0444,-0.0416,-0.0512,-0.0514,-0.0488,-0.0481,-0.0455,-0.0496,-0.0516,-0.0517,-0.0517,0,-0.0043,-0.004,-0.0021,-0.002,-0.0019,-0.0015,-0.0018,-0.0027,-0.0062,-0.0082,-0.0126,-0.0171,-0.0226,-0.0268,-0.0376,-0.0356,-0.0423,-0.0475,-0.0479,-0.0472,-0.0496,-0.051,-0.0503,-0.0525,-0.0525,-0.0524,-0.0523,0,-0.0,0.0002,0.0021,0.0021,0.0016,0.0026,0.002,-0.0003,0.0004,-0.0039,-0.0037,-0.0118,-0.0143,-0.0248,-0.0355,-0.037,-0.0465,-0.0502,-0.0541,-0.054,-0.0545,-0.0542,-0.0576,-0.0576,-0.0576,-0.0576,-0.0576,0,0.0035,0.0052,0.0046,0.0058,0.0091,0.0068,0.0094,0.0079,0.0072,0.0096,0.0003,0.0012,-0.0139,-0.0209,-0.0329,-0.0435,-0.0449,-0.053,-0.0551,-0.0526,-0.0522,-0.0572,-0.0571,-0.0578,-0.0578,-0.0577,-0.0577,0,0.0079,0.0073,0.0098,0.0105,0.0113,0.0133,0.0153,0.0174,0.0153,0.0184,0.018,0.0114,0.0029,-0.0117,-0.0269,-0.0379,-0.0499,-0.0534,-0.0483,-0.0496,-0.0561,-0.0557,-0.0593,-0.0593,-0.0592,-0.0592,-0.0592,0,0.0102,0.012,0.0141,0.0164,0.0171,0.0196,0.0225,0.0218,0.0245,0.0259,0.0286,0.0226,0.0203,-0.0012,-0.0214,-0.0407,-0.0449,-0.051,-0.0539,-0.0546,-0.0563,-0.0559,-0.0556,-0.0532,-0.0531,-0.0531,-0.053,0,0.015,0.0156,0.0177,0.0226,0.0262,0.03,0.0337,0.0379,0.0389,0.0423,0.0469,0.0457,0.0275,0.0095,-0.0164,-0.03,-0.0481,-0.0501,-0.0532,-0.0519,-0.0489,-0.0505,-0.0504,-0.0525,-0.0525,-0.0526,-0.0526,-0.0526,0.019,0.0214,0.0244,0.0292,0.0337,0.0401,0.0442,0.0495,0.0562,0.0617,0.0609,0.0591,0.0394,0.0073,-0.0157,-0.0413,-0.0414,-0.0515,-0.0517,-0.052,-0.0491,-0.0461,-0.0485,-0.0485,-0.0485,-0.0486,-0.0486,0,0.0236,0.0261,0.0309,0.0363,0.0419,0.0434,0.0519,0.0557,0.0648,0.0701,0.0737,0.0572,0.0379,0.0138,-0.0229,-0.0442,-0.0482,-0.051,-0.0518,-0.052,-0.0524,-0.0496,-0.0491,-0.0492,-0.0493,-0.0493,0,0,0.0263,0.0311,0.0329,0.0421,0.0465,0.0537,0.0588,0.0654,0.0698,0.0749,0.075,0.0733,0.0456,0.02,-0.0087,-0.0298,-0.037,-0.0342,-0.0313,-0.0292,-0.0293,-0.0498,-0.0454,0,0,0,0,0]}],[{"header":{"parameterUnit":"m.s-1","parameterCategory":2,"la1":30.2991,"la2":30.254,"lo1":-89.0895,"lo2":-89.0444,"dy":0.0017,"dx":0.0017,"nx":28,"ny":28,"refTime":"2024-03-05T03:00:00:Z","depth":"4","parameterNumber":2,"parameterNumberName":"U-component_of_CURRENTS"},"data":[0,0,0,0,0,0,0,0,0,0,0,0,0,0,0,0,0,0,0,0,0,0,0,0,0,0,0,0,0,0,0,0,0,0,0,0,0,0,0,0,0,0,0,0,0,0,0,0,0,0,0,0,0,0,0,0,0,0,0.1374,0.1375,0,0.1428,0.1429,0.1429,0.1476,0.1477,0.1477,0.1478,0.1543,0.1544,0.1545,0,0,0,0,0,0,0,0,0,0,0,0,0,0.1303,0.1304,0.1374,0.1375,0.1376,0.1428,0.1429,0.1429,0.1476,0.1477,0.1478,0.1478,0.1542,0.1543,0.1545,0,0,0,0,0,0,0,0,0,0,0,0,0,0.1341,0.1304,0.1374,0.1406,0.141,0.1428,0.1429,0.143,0.1476,0.1477,0.1478,0.1479,0.1542,0.1543,0.1545,0.1535,0,0,0.155,0.1551,0,0,0,0,0,0,0,0,0.1339,0.1344,0.1401,0.1404,0.1408,0.1448,0.1428,0.1466,0.1476,0.1449,0.1478,0.1479,0.1512,0.1516,0.1522,0.1538,0.1541,0.155,0.1551,0.1552,0.1552,0,0,0,0,0,0,0,0.1336,0.1342,0.1394,0.1401,0.1406,0.1416,0.1422,0.1435,0.1473,0.1451,0.1455,0.1464,0.1514,0.152,0.1524,0.1542,0.155,0.1552,0.1553,0.1553,0.1647,0.1648,0,0,0,0,0,0,0.1332,0.1339,0.1392,0.1396,0.1377,0.1416,0.1424,0.1433,0.1473,0.1481,0.1463,0.1466,0.1517,0.1522,0.1526,0.1598,0.1552,0.1553,0.1554,0.1645,0.1647,0.1649,0,0,0,0,0,0,0.1331,0.1336,0.139,0.137,0.1378,0.1417,0.1427,0.1433,0.1469,0.1482,0.1489,0.1496,0.1518,0.1524,0.1567,0.1598,0.1554,0.1556,0.1643,0.1646,0.1648,0.1689,0,0,0,0,0,0,0.1328,0.1335,0.1354,0.137,0.1379,0.142,0.1426,0.1434,0.1472,0.1477,0.1512,0.1517,0.1519,0.1564,0.1568,0.1599,0.1557,0.1642,0.1644,0.1647,0.1686,0.1693,0.1698,0,0,0,0,0,0.1325,0.1342,0.1355,0.1362,0.1399,0.1421,0.1427,0.1456,0.1473,0.1492,0.152,0.1518,0.1585,0.1567,0.1571,0.1603,0.164,0.1644,0.1647,0.1683,0.1691,0.1698,0,0,0,0,0,0,0.1322,0.1349,0.1363,0.1389,0.1413,0.143,0.1455,0.1471,0.1507,0.1523,0.1533,0.154,0.1589,0.1591,0.1571,0.164,0.1614,0.1618,0.164,0.1648,0.1654,0.165,0.1558,0,0,0,0,0,0.1328,0.1352,0.1374,0.1399,0.1413,0.1439,0.1458,0.1478,0.1505,0.1523,0.1547,0.1575,0.16,0.1621,0.164,0.1676,0.1678,0.1701,0.1708,0.1713,0.1714,0.1744,0.1753,0.166,0.166,0.166,0,0,0.1334,0.1354,0.1368,0.1401,0.1424,0.1446,0.1454,0.1491,0.1517,0.1523,0.1577,0.1597,0.1614,0.1657,0.1679,0.1667,0.1742,0.1717,0.1721,0.1719,0.1749,0.1758,0.1766,0.1662,0.1662,0.1661,0,0,0.1346,0.1376,0.1397,0.1419,0.146,0.1473,0.1489,0.1523,0.1552,0.1596,0.161,0.165,0.169,0.1707,0.172,0.1771,0.1772,0.1787,0.1819,0.1849,0.1857,0.1863,0.1882,0.189,0.1793,0.1793,0.1793,0,0.1355,0.1381,0.1407,0.1432,0.1455,0.1487,0.1512,0.154,0.1586,0.1612,0.1622,0.1694,0.171,0.1756,0.178,0.1784,0.1801,0.1787,0.1856,0.1863,0.1869,0.1886,0.1894,0.1796,0.1795,0.1795,0.1795,0,0.1372,0.1405,0.1422,0.1462,0.149,0.152,0.1555,0.1594,0.1631,0.1657,0.1722,0.1748,0.1789,0.1806,0.1811,0.1869,0.1866,0.1857,0.1834,0.1881,0.1896,0.1904,0.1799,0.1798,0.1798,0.1797,0,0,0.1354,0.142,0.1429,0.1455,0.1511,0.1531,0.1583,0.163,0.1668,0.1721,0.1769,0.1821,0.1844,0.186,0.1877,0.1909,0.1968,0.1911,0.1911,0.1922,0.2039,0.1938,0.1937,0.1979,0.198,0.1982,0.2033,0,0.1361,0.141,0.1443,0.1492,0.1519,0.1566,0.1606,0.1658,0.1707,0.1761,0.1804,0.1857,0.1862,0.1895,0.1928,0.1961,0.1991,0.1955,0.1997,0.1998,0.1897,0.1943,0.1987,0.2039,0.204,0.2042,0.2043,0,0.1359,0.1396,0.1446,0.1511,0.1527,0.1563,0.1636,0.1679,0.1755,0.1796,0.1857,0.1892,0.1957,0.195,0.2027,0.201,0.203,0.2047,0.2049,0.1944,0.1911,0.1982,0.2056,0.2055,0.2054,0.2053,0.2053,0,0.1322,0.1393,0.1435,0.1458,0.1534,0.1573,0.1619,0.1696,0.174,0.1829,0.1872,0.1942,0.1993,0.2032,0.2079,0.2065,0.2153,0.2129,0.2053,0.2046,0.2102,0.2094,0.2175,0.2175,0.2175,0.2175,0.2175,0,0.13,0.1336,0.1427,0.1448,0.1499,0.1565,0.1627,0.1681,0.1767,0.1812,0.1893,0.1935,0.2021,0.2079,0.2101,0.2104,0.2172,0.2063,0.2055,0.2119,0.2113,0.2108,0.2099,0.2177,0.2177,0.2176,0.2176,0,0.1246,0.1307,0.1357,0.145,0.1482,0.1522,0.1626,0.1664,0.1759,0.1822,0.1856,0.1959,0.2029,0.2098,0.2168,0.2124,0.214,0.2123,0.2197,0.2192,0.2005,0.1998,0.2029,0.2026,0.2023,0.2021,0.2019,0,0.1219,0.1243,0.1346,0.1378,0.1425,0.1499,0.1542,0.1646,0.1684,0.1816,0.1829,0.1944,0.1998,0.2014,0.2095,0.2129,0.2112,0.2099,0.2037,0.2002,0.1992,0.1989,0.1986,0.2015,0.2014,0.2014,0.2013,0,0.1166,0.1215,0.1258,0.1326,0.1381,0.143,0.1503,0.1518,0.1627,0.1728,0.1763,0.1808,0.1887,0.1942,0.1993,0.201,0.2092,0.2071,0.2075,0.2017,0.1986,0.1977,0.1977,0.2004,0.2005,0.2006,0.2007,0,0.1129,0.1145,0.1213,0.1259,0.1323,0.1341,0.1389,0.1433,0.1484,0.1617,0.1626,0.175,0.1856,0.1882,0.1925,0.1943,0.1912,0.1843,0.1858,0.1869,0.1797,0.1732,0.167,0,0,0,0,0,0.1087,0.1099,0.1141,0.1183,0.124,0.1279,0.1351,0.1399,0.1498,0.1481,0.1549,0.1611,0.1678,0.1748,0.1737,0.1872,0.1928,0.1852,0.1858,0.1954,0.1964,0.1896,0,0,0,0,0,0,0.106,0.11,0.1114,0.1111,0.1127,0.1176,0.1219,0.1286,0.128,0.1389,0.1435,0.1526,0.1619,0.1675,0.1711,0.1734,0.1708,0.1935,0.1932,0.1948,0.1957,0.1966,0.1899,0,0,0,0,0]},{"header":{"parameterUnit":"m.s-1","parameterCategory":2,"la1":30.2991,"la2":30.254,"lo1":-89.0895,"lo2":-89.0444,"dy":0.0017,"dx":0.0017,"nx":28,"ny":28,"refTime":"2024-03-05T03:00:00:Z","depth":"4","parameterNumber":3,"parameterNumberName":"V-component_of_CURRENTS"},"data":[0,0,0,0,0,0,0,0,0,0,0,0,0,0,0,0,0,0,0,0,0,0,0,0,0,0,0,0,0,0,0,0,0,0,0,0,0,0,0,0,0,0,0,0,0,0,0,0,0,0,0,0,0,0,0,0,0,0,-0.0089,-0.0089,0,-0.014,-0.014,-0.0141,-0.0177,-0.0178,-0.0178,-0.0178,-0.0244,-0.0245,-0.0246,0,0,0,0,0,0,0,0,0,0,0,0,0,-0.0046,-0.0047,-0.0089,-0.0089,-0.009,-0.014,-0.014,-0.0141,-0.0177,-0.0178,-0.0178,-0.0178,-0.0243,-0.0245,-0.0247,0,0,0,0,0,0,0,0,0,0,0,0,0,-0.0078,-0.0047,-0.0089,-0.0114,-0.0117,-0.0139,-0.014,-0.0141,-0.0177,-0.0178,-0.0178,-0.0179,-0.0243,-0.0245,-0.0247,-0.0252,0,0,-0.0254,-0.0255,0,0,0,0,0,0,0,0,-0.0076,-0.0079,-0.011,-0.0112,-0.0115,-0.0153,-0.0149,-0.0179,-0.0177,-0.0154,-0.0178,-0.0179,-0.0214,-0.0219,-0.0227,-0.0255,-0.0258,-0.0254,-0.0255,-0.0256,-0.0257,0,0,0,0,0,0,0,-0.0074,-0.0077,-0.0109,-0.011,-0.0114,-0.0131,-0.0136,-0.0155,-0.0181,-0.0156,-0.0159,-0.0165,-0.0216,-0.0225,-0.0229,-0.0259,-0.0254,-0.0256,-0.0257,-0.0258,-0.0301,-0.0301,0,0,0,0,0,0,-0.0065,-0.0075,-0.0107,-0.011,-0.0096,-0.0131,-0.0137,-0.014,-0.0181,-0.0188,-0.0164,-0.0166,-0.0221,-0.0226,-0.0231,-0.0237,-0.0256,-0.0258,-0.0259,-0.0301,-0.0301,-0.0301,0,0,0,0,0,0,-0.0064,-0.0068,-0.0105,-0.0094,-0.01,-0.0131,-0.0135,-0.0141,-0.0154,-0.0187,-0.0194,-0.0172,-0.0222,-0.0228,-0.0249,-0.024,-0.0259,-0.0261,-0.0301,-0.0301,-0.0301,-0.025,0,0,0,0,0,0,-0.0063,-0.0067,-0.0067,-0.0093,-0.01,-0.0117,-0.0135,-0.0142,-0.0156,-0.016,-0.0195,-0.0202,-0.0222,-0.0246,-0.0252,-0.0243,-0.0263,-0.0302,-0.0301,-0.0301,-0.0252,-0.0248,-0.0245,0,0,0,0,0,-0.0061,-0.0058,-0.0067,-0.0071,-0.0099,-0.0116,-0.0121,-0.0145,-0.0156,-0.0159,-0.0184,-0.0201,-0.0248,-0.0248,-0.0254,-0.0246,-0.0302,-0.0301,-0.0301,-0.0254,-0.0249,-0.0245,0,0,0,0,0,0,-0.004,-0.0062,-0.0072,-0.0077,-0.0094,-0.0122,-0.0127,-0.0144,-0.0165,-0.0169,-0.02,-0.0208,-0.0224,-0.0243,-0.0242,-0.0259,-0.0277,-0.0278,-0.0239,-0.0234,-0.0231,-0.0217,-0.0265,0,0,0,0,0,-0.0034,-0.0038,-0.0063,-0.0065,-0.0073,-0.01,-0.011,-0.0125,-0.0148,-0.0158,-0.0183,-0.0208,-0.0227,-0.0237,-0.0259,-0.0267,-0.0283,-0.0267,-0.0263,-0.026,-0.0253,-0.0266,-0.0262,-0.03,-0.03,-0.03,0,0,-0.0027,-0.0039,-0.0042,-0.0061,-0.0076,-0.008,-0.0107,-0.0119,-0.012,-0.0161,-0.0172,-0.0199,-0.0228,-0.0238,-0.0246,-0.0252,-0.0259,-0.0259,-0.0256,-0.0252,-0.0265,-0.0261,-0.0258,-0.0299,-0.0299,-0.0299,0,0,-0.001,-0.0024,-0.002,-0.0032,-0.0051,-0.0066,-0.0068,-0.0096,-0.0106,-0.0122,-0.0149,-0.0169,-0.0201,-0.0215,-0.0227,-0.0217,-0.0242,-0.0226,-0.0193,-0.0204,-0.0201,-0.0198,-0.0216,-0.0216,-0.022,-0.022,-0.022,0,0.0001,0.0001,-0.0022,-0.0021,-0.0026,-0.0057,-0.0052,-0.0065,-0.0095,-0.0098,-0.0119,-0.0161,-0.0188,-0.0192,-0.0191,-0.0208,-0.0221,-0.0205,-0.0198,-0.0196,-0.0194,-0.0213,-0.0213,-0.0218,-0.0218,-0.0218,-0.0218,0,0.0019,0.0019,0.0021,0.0014,0.0007,0.0005,-0.0014,-0.0019,-0.0039,-0.0055,-0.0071,-0.011,-0.0133,-0.0145,-0.0166,-0.0163,-0.018,-0.0194,-0.0205,-0.0187,-0.0209,-0.021,-0.0214,-0.0215,-0.0216,-0.0216,0,0,0.0044,0.0036,0.0038,0.0044,0.0025,0.0025,0.0028,0.0023,0.0032,-0.0004,0.0002,-0.0039,-0.0064,-0.0079,-0.0108,-0.0119,-0.0124,-0.0147,-0.0148,-0.0158,-0.0153,-0.0175,-0.0179,-0.0135,-0.0135,-0.0135,-0.0174,0,0.0066,0.008,0.0068,0.0087,0.0092,0.0075,0.0086,0.0078,0.006,0.0058,0.0021,0.0007,-0.0036,-0.0047,-0.0064,-0.0109,-0.0123,-0.0112,-0.0175,-0.0177,-0.0194,-0.0179,-0.0134,-0.0175,-0.0175,-0.0175,-0.0175,0,0.0088,0.0095,0.0115,0.013,0.0132,0.014,0.0154,0.0156,0.0146,0.0133,0.011,0.0075,0.005,0.0011,-0.0051,-0.0041,-0.0091,-0.0129,-0.0131,-0.0169,-0.0201,-0.0198,-0.0177,-0.0177,-0.0177,-0.0177,-0.0177,0,0.0117,0.013,0.015,0.0152,0.0162,0.0176,0.0181,0.0178,0.0191,0.0175,0.0179,0.0137,0.0118,0.0056,-0.0033,-0.0039,-0.0102,-0.0121,-0.0188,-0.0191,-0.0182,-0.0184,-0.0161,-0.0161,-0.016,-0.016,-0.016,0,0.0142,0.016,0.0168,0.018,0.0216,0.0208,0.024,0.0241,0.0248,0.0269,0.0216,0.0218,0.013,0.0078,-0.0007,-0.01,-0.0085,-0.0179,-0.0199,-0.0161,-0.016,-0.0183,-0.0185,-0.0162,-0.0161,-0.0161,-0.0161,0,0.0165,0.0169,0.0197,0.0217,0.0229,0.0251,0.0281,0.0305,0.0303,0.0328,0.0326,0.0286,0.0211,0.0113,0.001,-0.0064,-0.0155,-0.0194,-0.0145,-0.0163,-0.0242,-0.0241,-0.0265,-0.0266,-0.0267,-0.0268,-0.0268,0,0.0175,0.0191,0.0225,0.0246,0.0255,0.0286,0.0315,0.033,0.0352,0.0366,0.0382,0.0327,0.028,0.0131,0.0013,-0.0146,-0.0177,-0.0223,-0.0234,-0.0234,-0.0251,-0.0249,-0.0247,-0.027,-0.027,-0.027,-0.027,0,0.0196,0.0208,0.0229,0.0271,0.0304,0.0346,0.038,0.0406,0.0426,0.0434,0.0434,0.0353,0.0268,0.0137,0.0011,-0.0107,-0.0191,-0.0233,-0.0232,-0.0243,-0.024,-0.0256,-0.0253,-0.0273,-0.0273,-0.0273,-0.0273,0,0.021,0.0227,0.0255,0.0292,0.0338,0.0384,0.0403,0.0433,0.0461,0.0475,0.0475,0.0381,0.0334,0.0157,0.004,-0.0078,-0.0115,-0.0154,-0.0157,-0.0156,-0.0122,-0.0102,-0.0104,0,0,0,0,0,0.0218,0.0236,0.0272,0.0312,0.0359,0.0385,0.0441,0.0457,0.0482,0.0493,0.0487,0.0406,0.0242,0.0172,0.005,-0.0,-0.0152,-0.0149,-0.0203,-0.029,-0.0287,-0.0269,0,0,0,0,0,0,0.0223,0.0254,0.0269,0.0321,0.0348,0.0404,0.044,0.046,0.0464,0.0476,0.0395,0.0365,0.0204,0.0311,0.0044,0.0008,-0.0046,-0.0224,-0.0227,-0.0292,-0.0289,-0.0286,-0.0267,0,0,0,0,0]}]]